Back to catalog

STARLINK-35214

AliveCommunicationsVLEO
NORAD 65747·PAYLOAD·🇺🇸 United States

Launched Sep 25, 2025 from Cape Canaveral Space Force Station

Loading…

Next Passes (next 24 hours)

TLE

FreshSource: CelesTrak SupGP

Epoch: Sep 14, 2026, 14:16 UTC

1 65747C 25216P   26257.59493056  .00058737  00000+0  17359-2 0  2571
2 65747  53.1577 173.1802 0001156  99.2342  48.3563 15.34351974    15

Track STARLINK-35214 in real time with AllMySat

Download on the App Store